SIA86 VOMM-RJBB

Flight info

Callsign SIA86
Flight time N/A
Altitude 35000
Route DOKET2B DOKET A465 CEA B465 CTG A599 LINSO/K0911S1070 A599 SGM A581 EPGAL/K0893S1130 A581 WHA R343 PK A593 AKARA/K0900F370 A593 LAMEN/N0487F370 A593 SADLI Y590 BEDAR Y591 FUE Y35 IGLEV
Aircraft B77W/H-SDE1E2E3FGHIJ2J3J4J5M1RWXY/LB1D1

Departure

Time 2026-04-25 10:59
Airport Chennai International Airport (VOMM)

Arrival

Time N/A
Airport Kansai International Airport (RJBB)
Time Latitude Longitude Altitude Speed Heading
2026-04-25 10:22 12.99245 80.17981 66 ft 0 kts 153°
2026-04-25 10:43 12.99253 80.17976 56 ft 2 kts 153°
2026-04-25 10:43 12.99268 80.17969 56 ft 2 kts 153°
2026-04-25 10:43 12.99282 80.17961 56 ft 2 kts 159°
2026-04-25 10:44 12.99298 80.17961 60 ft 2 kts 238°
2026-04-25 10:44 12.99300 80.17964 59 ft 0 kts 245°
2026-04-25 10:47 12.99291 80.17942 56 ft 7 kts 246°
2026-04-25 10:47 12.99264 80.17870 60 ft 14 kts 249°
2026-04-25 10:47 12.99227 80.17769 62 ft 7 kts 249°
2026-04-25 10:47 12.99211 80.17725 59 ft 7 kts 249°
2026-04-25 10:48 12.99176 80.17700 61 ft 7 kts 191°
2026-04-25 10:48 12.99134 80.17679 57 ft 7 kts 221°
2026-04-25 10:48 12.99112 80.17636 58 ft 7 kts 251°
2026-04-25 10:48 12.99097 80.17590 60 ft 7 kts 251°
2026-04-25 10:49 12.99081 80.17544 62 ft 7 kts 251°
2026-04-25 10:49 12.99064 80.17499 58 ft 7 kts 244°
2026-04-25 10:49 12.99044 80.17454 58 ft 7 kts 247°
2026-04-25 10:49 12.99027 80.17408 57 ft 7 kts 250°
2026-04-25 10:50 12.99010 80.17360 59 ft 8 kts 250°
2026-04-25 10:50 12.98984 80.17281 59 ft 14 kts 255°
2026-04-25 10:50 12.99008 80.17221 57 ft 9 kts 344°
2026-04-25 10:50 12.99071 80.17204 57 ft 10 kts 340°
2026-04-25 10:51 12.99137 80.17186 53 ft 10 kts
2026-04-25 10:51 12.99214 80.17190 55 ft 15 kts
2026-04-25 10:51 12.99374 80.17200 55 ft 31 kts
2026-04-25 10:51 12.99615 80.17208 57 ft 34 kts 349°
2026-04-25 10:52 12.99756 80.17048 53 ft 30 kts 296°
2026-04-25 10:52 12.99848 80.16856 54 ft 30 kts 297°
2026-04-25 10:52 12.99945 80.16667 57 ft 30 kts 300°
2026-04-25 10:52 13.00018 80.16533 56 ft 17 kts 298°
2026-04-25 10:53 13.00028 80.16514 52 ft 0 kts 298°
2026-04-25 10:53 13.00066 80.16434 51 ft 17 kts 295°
2026-04-25 10:53 13.00146 80.16280 50 ft 34 kts 298°
2026-04-25 10:53 13.00257 80.16067 50 ft 33 kts 298°
2026-04-25 10:54 13.00360 80.15869 49 ft 30 kts 298°
2026-04-25 10:54 13.00425 80.15744 51 ft 30 kts 298°
2026-04-25 10:54 13.00494 80.15611 52 ft 15 kts 298°
2026-04-25 10:54 13.00574 80.15570 56 ft 0 kts 10°
2026-04-25 10:55 13.00574 80.15569 56 ft 0 kts 10°
2026-04-25 10:56 13.00574 80.15570 56 ft 0 kts 10°
2026-04-25 10:56 13.00579 80.15571 55 ft 0 kts 13°
2026-04-25 10:57 13.00583 80.15572 55 ft 3 kts 16°
2026-04-25 10:57 13.00627 80.15590 54 ft 8 kts 24°
2026-04-25 10:57 13.00663 80.15634 53 ft 9 kts 79°
2026-04-25 10:57 13.00648 80.15693 52 ft 9 kts 114°
2026-04-25 10:58 13.00622 80.15748 51 ft 9 kts 117°
2026-04-25 10:58 13.00593 80.15802 53 ft 9 kts 118°
2026-04-25 10:58 13.00565 80.15856 53 ft 9 kts 118°
2026-04-25 10:58 13.00537 80.15910 53 ft 9 kts 117°
2026-04-25 10:59 13.00510 80.15964 52 ft 9 kts 117°
2026-04-25 10:59 13.00407 80.16164 53 ft 75 kts 118°
2026-04-25 10:59 13.00012 80.16931 55 ft 166 kts 118°
2026-04-25 10:59 12.99409 80.18126 689 ft 188 kts 120°
2026-04-25 11:00 12.98872 80.19406 1556 ft 206 kts 99°
2026-04-25 11:00 12.99103 80.20900 2287 ft 229 kts 72°
2026-04-25 11:00 12.99778 80.22501 2494 ft 257 kts 67°
2026-04-25 11:00 13.00545 80.24200 3102 ft 266 kts 68°
2026-04-25 11:01 13.01487 80.25839 3825 ft 273 kts 46°
2026-04-25 11:01 13.03033 80.26964 4603 ft 274 kts 32°
2026-04-25 11:01 13.04683 80.27939 5385 ft 272 kts 32°
2026-04-25 11:01 13.06309 80.28896 5902 ft 267 kts 32°
2026-04-25 11:02 13.07922 80.29844 5983 ft 269 kts 32°
2026-04-25 11:02 13.09539 80.30798 5998 ft 267 kts 31°
2026-04-25 11:02 13.11151 80.31749 6003 ft 266 kts 32°
2026-04-25 11:02 13.12751 80.32696 6000 ft 264 kts 31°
2026-04-25 11:03 13.14353 80.33644 6013 ft 268 kts 31°
2026-04-25 11:03 13.15982 80.34610 6003 ft 272 kts 32°
2026-04-25 11:03 13.17625 80.35586 6003 ft 273 kts 31°
2026-04-25 11:03 13.19267 80.36560 6004 ft 272 kts 31°
2026-04-25 11:04 13.20903 80.37532 5997 ft 272 kts 32°
2026-04-25 11:04 13.22540 80.38505 5997 ft 272 kts 32°
2026-04-25 11:04 13.24179 80.39480 6009 ft 273 kts 32°
2026-04-25 11:04 13.25272 80.40130 6006 ft 275 kts 31°
2026-04-25 11:05 13.27493 80.41450 6015 ft 279 kts 32°
2026-04-25 11:05 13.29182 80.42455 6016 ft 281 kts 32°
2026-04-25 11:05 13.30854 80.43457 6001 ft 274 kts 33°
2026-04-25 11:05 13.32405 80.44554 6212 ft 271 kts 38°
2026-04-25 11:06 13.33925 80.45726 6955 ft 271 kts 38°
2026-04-25 11:06 13.35420 80.46891 7823 ft 272 kts 38°
2026-04-25 11:06 13.36949 80.48083 8484 ft 279 kts 38°
2026-04-25 11:06 13.38498 80.49286 9371 ft 277 kts 38°
2026-04-25 11:07 13.40039 80.50478 10141 ft 279 kts 38°
2026-04-25 11:07 13.41623 80.51700 10623 ft 294 kts 37°
2026-04-25 11:07 13.43333 80.53018 10780 ft 319 kts 37°
2026-04-25 11:07 13.45156 80.54420 10957 ft 343 kts 37°
2026-04-25 11:08 13.47126 80.55933 11232 ft 362 kts 37°
2026-04-25 11:08 13.49171 80.57501 11790 ft 371 kts 37°
2026-04-25 11:08 13.51254 80.59097 12472 ft 376 kts 37°
2026-04-25 11:08 13.51963 80.59640 12731 ft 378 kts 37°
2026-04-25 11:09 13.52208 80.59828 12814 ft 378 kts 37°
2026-04-25 11:09 13.55068 80.62019 13824 ft 382 kts 37°
2026-04-25 11:09 13.57214 80.63664 14389 ft 389 kts 37°
2026-04-25 11:09 13.58686 80.64791 14734 ft 393 kts 37°
2026-04-25 11:10 13.61621 80.67042 15536 ft 399 kts 38°
2026-04-25 11:10 13.62371 80.67617 15749 ft 401 kts 38°
2026-04-25 11:10 13.66150 80.70517 16602 ft 412 kts 38°
2026-04-25 11:10 13.68467 80.72295 17079 ft 420 kts 38°
2026-04-25 11:11 13.70828 80.74106 17567 ft 426 kts 38°
2026-04-25 11:11 13.73221 80.75945 18076 ft 433 kts 38°
2026-04-25 11:11 13.75642 80.77804 18556 ft 437 kts 38°
2026-04-25 11:11 13.78091 80.79685 19107 ft 439 kts 38°
2026-04-25 11:12 13.80543 80.81567 19625 ft 443 kts 38°
2026-04-25 11:12 13.83022 80.83471 20077 ft 447 kts 38°
2026-04-25 11:12 13.85526 80.85395 20608 ft 450 kts 38°
2026-04-25 11:12 13.88043 80.87329 21103 ft 453 kts 37°
2026-04-25 11:13 13.90572 80.89274 21607 ft 456 kts 37°
2026-04-25 11:13 13.93131 80.91243 22020 ft 461 kts 37°
2026-04-25 11:13 13.95701 80.93220 22519 ft 463 kts 37°
2026-04-25 11:13 13.98294 80.95217 22978 ft 467 kts 37°
2026-04-25 11:14 14.00907 80.97229 23424 ft 470 kts 37°
2026-04-25 11:14 14.03534 80.99252 23775 ft 474 kts 37°
2026-04-25 11:14 14.06189 81.01298 24065 ft 479 kts 37°
2026-04-25 11:14 14.08865 81.03360 24385 ft 483 kts 37°
2026-04-25 11:15 14.11561 81.05439 24770 ft 485 kts 37°
2026-04-25 11:15 14.14268 81.07526 25122 ft 488 kts 37°
2026-04-25 11:15 14.16993 81.09628 25491 ft 491 kts 37°
2026-04-25 11:15 14.19733 81.11742 25838 ft 494 kts 37°
2026-04-25 11:16 14.24327 81.15289 26365 ft 499 kts 37°
2026-04-25 11:16 14.28060 81.18171 26800 ft 503 kts 37°
2026-04-25 11:16 14.29918 81.19607 27010 ft 505 kts 37°
2026-04-25 11:17 14.32747 81.21793 27322 ft 508 kts 37°
2026-04-25 11:17 14.35582 81.23984 27635 ft 512 kts 37°
2026-04-25 11:17 14.38438 81.26192 27919 ft 515 kts 37°
2026-04-25 11:17 14.41315 81.28418 28197 ft 518 kts 37°
2026-04-25 11:18 14.44203 81.30653 28468 ft 521 kts 37°
2026-04-25 11:18 14.47110 81.32903 28732 ft 524 kts 37°
2026-04-25 11:18 14.50032 81.35165 28992 ft 526 kts 37°
2026-04-25 11:18 14.52962 81.37435 29243 ft 529 kts 37°
2026-04-25 11:19 14.55915 81.39723 29462 ft 532 kts 37°
2026-04-25 11:19 14.58877 81.42019 29744 ft 533 kts 37°
2026-04-25 11:19 14.61839 81.44315 30058 ft 533 kts 37°
2026-04-25 11:19 14.64801 81.46612 30403 ft 531 kts 37°
2026-04-25 11:20 14.67752 81.48901 30766 ft 530 kts 37°
2026-04-25 11:20 14.70695 81.51186 31110 ft 528 kts 37°
2026-04-25 11:20 14.72641 81.52697 31333 ft 528 kts 37°
2026-04-25 11:20 14.73260 81.53177 31416 ft 528 kts 37°
2026-04-25 11:21 14.76284 81.55526 31732 ft 527 kts 36°
2026-04-25 11:21 14.79205 81.57796 32055 ft 526 kts 36°
2026-04-25 11:21 14.82132 81.60071 32391 ft 525 kts 36°
2026-04-25 11:21 14.85045 81.62335 32738 ft 524 kts 36°
2026-04-25 11:22 14.87956 81.64600 33070 ft 523 kts 36°
2026-04-25 11:22 14.90857 81.66857 33379 ft 522 kts 36°
2026-04-25 11:22 14.93752 81.69110 33689 ft 521 kts 36°
2026-04-25 11:22 14.96647 81.71364 33976 ft 520 kts 36°
2026-04-25 11:23 14.99540 81.73617 34222 ft 520 kts 36°
2026-04-25 11:23 15.02389 81.75838 34461 ft 520 kts 36°
2026-04-25 11:23 15.05279 81.78091 34704 ft 519 kts 36°
2026-04-25 11:23 15.08162 81.80338 34910 ft 519 kts 36°
2026-04-25 11:24 15.14316 81.84169 35021 ft 516 kts 15°
2026-04-25 11:24 15.17813 81.84868 35007 ft 510 kts 358°
2026-04-25 11:24 15.21323 81.84756 35047 ft 504 kts 354°
2026-04-25 11:25 15.28360 81.84471 35031 ft 508 kts 355°
2026-04-25 11:25 15.35456 81.84325 35017 ft 510 kts 356°
2026-04-25 11:26 15.42560 81.84220 35019 ft 510 kts 356°
2026-04-25 11:26 15.49642 81.84104 35019 ft 509 kts 356°
2026-04-25 11:27 15.56647 81.84799 35023 ft 512 kts 17°
2026-04-25 11:27 15.59829 81.86466 35016 ft 513 kts 32°
2026-04-25 11:27 15.61771 81.87852 35051 ft 513 kts 33°
2026-04-25 11:28 15.68692 81.92755 35029 ft 517 kts 32°
2026-04-25 11:28 15.74718 81.96856 35026 ft 519 kts 31°
2026-04-25 11:29 15.80792 82.00947 35025 ft 521 kts 31°
2026-04-25 11:29 15.86882 82.05061 35023 ft 522 kts 31°
2026-04-25 11:30 15.93017 82.09114 35024 ft 522 kts 30°
2026-04-25 11:30 15.99153 82.13136 35023 ft 522 kts 30°
2026-04-25 11:31 16.05280 82.17168 35023 ft 521 kts 30°
2026-04-25 11:31 16.11360 82.21182 35021 ft 520 kts 30°
2026-04-25 11:32 16.16469 82.24560 35021 ft 519 kts 30°
2026-04-25 11:32 16.20340 82.27121 35022 ft 519 kts 30°
2026-04-25 11:33 16.26388 82.31123 35019 ft 519 kts 30°
2026-04-25 11:33 16.32476 82.35154 35022 ft 519 kts 30°
2026-04-25 11:34 16.38575 82.39195 35021 ft 519 kts 30°
2026-04-25 11:34 16.44665 82.43234 35026 ft 520 kts 30°
2026-04-25 11:35 16.50764 82.47282 35025 ft 520 kts 30°
2026-04-25 11:35 16.56868 82.51336 35024 ft 521 kts 30°
2026-04-25 11:36 16.62981 82.55400 35026 ft 521 kts 30°
2026-04-25 11:36 16.69095 82.59467 35022 ft 521 kts 30°
2026-04-25 11:37 16.75212 82.63541 35020 ft 522 kts 30°
2026-04-25 11:37 16.81329 82.67624 35022 ft 522 kts 30°
2026-04-25 11:38 16.87441 82.71722 35022 ft 522 kts 30°
2026-04-25 11:38 16.93544 82.75820 35018 ft 522 kts 30°
2026-04-25 11:39 16.99650 82.79921 35018 ft 522 kts 30°
2026-04-25 11:39 17.05763 82.84029 35019 ft 522 kts 30°
2026-04-25 11:40 17.11865 82.88133 35017 ft 522 kts 30°
2026-04-25 11:40 17.17967 82.92240 35016 ft 522 kts 30°
2026-04-25 11:41 17.23972 82.96285 35014 ft 522 kts 30°
2026-04-25 11:41 17.30074 83.00399 35011 ft 522 kts 30°
2026-04-25 11:42 17.36175 83.04515 35011 ft 522 kts 30°
2026-04-25 11:42 17.42285 83.08641 35008 ft 523 kts 30°
2026-04-25 11:43 17.48394 83.12770 35005 ft 523 kts 30°
2026-04-25 11:43 17.54510 83.16907 35001 ft 523 kts 30°
2026-04-25 11:44 17.57571 83.18979 35004 ft 523 kts 30°
2026-04-25 11:44 17.63363 83.22988 34999 ft 525 kts 34°
2026-04-25 11:45 17.68819 83.28116 34997 ft 528 kts 45°
2026-04-25 11:45 17.73443 83.34114 35005 ft 529 kts 52°
2026-04-25 11:46 17.77839 83.40319 35001 ft 530 kts 52°
2026-04-25 11:46 17.82252 83.46511 35002 ft 530 kts 52°
2026-04-25 11:47 17.86669 83.52642 35011 ft 530 kts 52°
2026-04-25 11:47 17.91124 83.58806 35012 ft 530 kts 52°
2026-04-25 11:48 17.95581 83.64983 35016 ft 530 kts 52°
2026-04-25 11:48 18.00031 83.71162 35017 ft 531 kts 52°
2026-04-25 11:49 18.04481 83.77347 35019 ft 531 kts 52°
2026-04-25 11:49 18.08931 83.83540 35022 ft 531 kts 52°
2026-04-25 11:50 18.13375 83.89728 35025 ft 531 kts 52°
2026-04-25 11:50 18.17824 83.95929 35025 ft 531 kts 52°
2026-04-25 11:51 18.22264 84.02125 35026 ft 531 kts 52°
2026-04-25 11:51 18.26712 84.08338 35025 ft 531 kts 52°
2026-04-25 11:52 18.31162 84.14547 35025 ft 531 kts 51°
2026-04-25 11:52 18.35633 84.20736 35024 ft 532 kts 51°
2026-04-25 11:53 18.40110 84.26931 35024 ft 532 kts 51°
2026-04-25 11:53 18.44584 84.33139 35026 ft 532 kts 51°
2026-04-25 11:54 18.49049 84.39346 35025 ft 532 kts 51°
2026-04-25 11:55 18.55748 84.48669 35025 ft 532 kts 51°
2026-04-25 11:55 18.60218 84.54897 35023 ft 532 kts 51°
2026-04-25 11:56 18.62450 84.58009 35025 ft 533 kts 51°
2026-04-25 11:56 18.66680 84.63911 35014 ft 533 kts 51°
2026-04-25 11:57 18.71154 84.70160 35023 ft 533 kts 51°
2026-04-25 11:57 18.75625 84.76411 35020 ft 534 kts 51°
2026-04-25 11:58 18.80092 84.82664 35020 ft 534 kts 51°
2026-04-25 11:58 18.84535 84.88879 35021 ft 533 kts 51°
2026-04-25 11:59 18.89049 84.95086 35019 ft 533 kts 51°
2026-04-25 11:59 18.93606 85.01322 35014 ft 532 kts 51°
2026-04-25 12:00 19.00331 85.10572 35012 ft 531 kts 51°
2026-04-25 12:01 19.07062 85.19857 35013 ft 531 kts 51°
2026-04-25 12:01 19.11555 85.26038 35011 ft 530 kts 49°
2026-04-25 12:02 19.19057 85.34619 35024 ft 530 kts 44°
2026-04-25 12:02 19.24175 85.40313 35016 ft 531 kts 44°
2026-04-25 12:03 19.29200 85.45984 35010 ft 532 kts 44°
2026-04-25 12:03 19.34269 85.51677 35010 ft 532 kts 44°
2026-04-25 12:04 19.39347 85.57371 35008 ft 531 kts 44°
2026-04-25 12:04 19.44414 85.63064 35009 ft 530 kts 44°
2026-04-25 12:05 19.49461 85.68743 35007 ft 530 kts 44°
2026-04-25 12:05 19.54511 85.74433 35009 ft 529 kts 44°
2026-04-25 12:06 19.58697 85.79154 35010 ft 529 kts 44°
2026-04-25 12:06 19.63730 85.84834 35005 ft 528 kts 44°
2026-04-25 12:07 19.68767 85.90524 35000 ft 528 kts 44°
2026-04-25 12:07 19.72959 85.95264 35003 ft 528 kts 44°
2026-04-25 12:08 19.76092 85.98810 35004 ft 528 kts 44°
2026-04-25 12:08 19.81120 86.04504 35004 ft 528 kts 44°
2026-04-25 12:09 19.86146 86.10203 35000 ft 529 kts 44°
2026-04-25 12:09 19.91168 86.15902 35002 ft 529 kts 44°
2026-04-25 12:10 19.96118 86.21683 34998 ft 529 kts 45°
2026-04-25 12:10 20.01037 86.27514 34997 ft 529 kts 45°
2026-04-25 12:11 20.05977 86.33326 34995 ft 530 kts 44°
2026-04-25 12:11 20.10998 86.39051 34998 ft 529 kts 43°
2026-04-25 12:12 20.16060 86.44750 34998 ft 530 kts 43°
2026-04-25 12:12 20.21107 86.50460 34998 ft 530 kts 43°
2026-04-25 12:13 20.26143 86.56188 34995 ft 530 kts 43°
2026-04-25 12:13 20.31179 86.61927 34995 ft 530 kts 43°
2026-04-25 12:14 20.36211 86.67665 34993 ft 530 kts 43°
2026-04-25 12:14 20.41203 86.73362 34998 ft 530 kts 43°
2026-04-25 12:15 20.46203 86.79073 34998 ft 531 kts 43°
2026-04-25 12:15 20.51244 86.84838 34996 ft 532 kts 43°
2026-04-25 12:16 20.56294 86.90619 34996 ft 532 kts 43°
2026-04-25 12:16 20.61340 86.96402 34999 ft 533 kts 43°
2026-04-25 12:17 20.66409 87.02176 35000 ft 533 kts 41°
2026-04-25 12:17 20.71590 87.07827 34998 ft 533 kts 41°
2026-04-25 12:18 20.76808 87.13462 35000 ft 533 kts 41°
2026-04-25 12:18 20.82012 87.19122 35000 ft 534 kts 41°
2026-04-25 12:19 20.88929 87.26694 34997 ft 535 kts 41°
2026-04-25 12:20 20.92223 87.30306 34999 ft 535 kts 41°
2026-04-25 12:20 20.97425 87.36013 35001 ft 536 kts 41°
2026-04-25 12:21 21.02633 87.41730 34985 ft 537 kts 41°
2026-04-25 12:21 21.07847 87.47460 35005 ft 537 kts 41°
2026-04-25 12:22 21.13065 87.53200 35006 ft 538 kts 41°
2026-04-25 12:22 21.18275 87.58938 34998 ft 538 kts 41°
2026-04-25 12:23 21.23491 87.64689 34991 ft 538 kts 41°
2026-04-25 12:23 21.28697 87.70434 35004 ft 537 kts 41°
2026-04-25 12:24 21.33904 87.76187 35001 ft 537 kts 40°
2026-04-25 12:24 21.39103 87.81938 35000 ft 537 kts 40°
2026-04-25 12:25 21.44304 87.87697 34995 ft 537 kts 40°
2026-04-25 12:25 21.49490 87.93446 34996 ft 537 kts 40°
2026-04-25 12:26 21.54680 87.99207 34996 ft 536 kts 40°
2026-04-25 12:26 21.59856 88.04884 34997 ft 533 kts 36°
2026-04-25 12:27 21.65838 88.09352 35004 ft 517 kts 21°
2026-04-25 12:27 21.72421 88.12156 35009 ft 505 kts 10°
2026-04-25 12:28 21.79138 88.14361 35001 ft 505 kts
2026-04-25 12:28 21.85857 88.16595 34997 ft 506 kts 10°
2026-04-25 12:29 21.92575 88.18887 34994 ft 506 kts 10°
2026-04-25 12:29 21.99283 88.21196 34998 ft 507 kts 10°
2026-04-25 12:30 22.06003 88.23510 34995 ft 507 kts 10°
2026-04-25 12:30 22.12722 88.25823 34994 ft 507 kts
2026-04-25 12:31 22.19449 88.28141 34993 ft 507 kts
2026-04-25 12:31 22.22453 88.29176 34993 ft 507 kts
2026-04-25 12:32 22.29293 88.31536 34989 ft 508 kts
2026-04-25 12:32 22.36021 88.33860 34981 ft 508 kts
2026-04-25 12:33 22.42753 88.36187 34983 ft 508 kts
2026-04-25 12:33 22.49497 88.38522 34979 ft 509 kts
2026-04-25 12:34 22.56243 88.40859 34976 ft 509 kts
2026-04-25 12:34 22.59516 88.42388 34968 ft 523 kts 25°
2026-04-25 12:34 22.62385 88.44911 34974 ft 542 kts 43°
2026-04-25 12:34 22.63909 88.47075 34973 ft 552 kts 55°
2026-04-25 12:35 22.65760 88.52299 34983 ft 563 kts 79°
2026-04-25 12:35 22.65962 88.56528 34971 ft 565 kts 97°
2026-04-25 12:35 22.65304 88.60699 34992 ft 562 kts 103°
2026-04-25 12:36 22.63676 88.68979 34979 ft 564 kts 103°
2026-04-25 12:36 22.62177 88.77324 34975 ft 566 kts 102°
2026-04-25 12:37 22.60797 88.85721 34977 ft 566 kts 101°
2026-04-25 12:37 22.59412 88.94110 34975 ft 566 kts 100°
2026-04-25 12:38 22.58380 89.02553 34975 ft 566 kts 97°
2026-04-25 12:38 22.57500 89.11017 34980 ft 566 kts 97°
2026-04-25 12:39 22.56609 89.19482 34979 ft 566 kts 97°
2026-04-25 12:39 22.55688 89.27869 34981 ft 565 kts 97°
2026-04-25 12:40 22.54743 89.36308 34984 ft 565 kts 97°
2026-04-25 12:40 22.53792 89.44757 34986 ft 566 kts 97°
2026-04-25 12:41 22.52840 89.53207 34985 ft 566 kts 98°
2026-04-25 12:41 22.51885 89.61665 34989 ft 566 kts 98°
2026-04-25 12:42 22.50925 89.70118 34991 ft 566 kts 98°
2026-04-25 12:42 22.49960 89.78568 34992 ft 566 kts 98°
2026-04-25 12:43 22.48994 89.86993 34990 ft 566 kts 98°
2026-04-25 12:43 22.48063 89.95075 34993 ft 565 kts 98°
2026-04-25 12:44 22.47089 90.03490 35000 ft 564 kts 98°
2026-04-25 12:45 22.45621 90.16102 34998 ft 563 kts 98°
2026-04-25 12:45 22.44144 90.28705 34999 ft 563 kts 98°
2026-04-25 12:46 22.43155 90.37097 34999 ft 563 kts 98°
2026-04-25 12:46 22.42162 90.45477 34997 ft 562 kts 98°
2026-04-25 12:47 22.41166 90.53854 35003 ft 562 kts 98°
2026-04-25 12:47 22.40164 90.62243 35000 ft 562 kts 98°
2026-04-25 12:48 22.39158 90.70622 35000 ft 562 kts 98°
2026-04-25 12:48 22.38155 90.78947 35005 ft 562 kts 98°
2026-04-25 12:49 22.37134 90.87377 35006 ft 562 kts 98°
2026-04-25 12:49 22.36122 90.95704 35005 ft 562 kts 98°
2026-04-25 12:50 22.35099 91.04081 35008 ft 562 kts 98°
2026-04-25 12:50 22.34073 91.12448 35008 ft 562 kts 98°
2026-04-25 12:51 22.33042 91.20814 35006 ft 562 kts 98°
2026-04-25 12:51 22.32008 91.29176 35008 ft 562 kts 98°
2026-04-25 12:52 22.30970 91.37539 35010 ft 562 kts 98°
2026-04-25 12:52 22.30139 91.44555 35010 ft 562 kts 97°
2026-04-25 12:53 22.29059 91.54278 35008 ft 562 kts 97°
2026-04-25 12:53 22.28276 91.61242 35004 ft 562 kts 97°
2026-04-25 12:54 22.27318 91.69613 35001 ft 562 kts 97°
2026-04-25 12:54 22.26374 91.77983 35001 ft 561 kts 95°
2026-04-25 12:55 22.26221 91.80401 35002 ft 561 kts 91°
2026-04-25 12:55 22.26672 91.90143 34996 ft 559 kts 79°
2026-04-25 12:56 22.27898 91.98424 35012 ft 558 kts 78°
2026-04-25 12:56 22.29105 92.06713 35014 ft 559 kts 79°
2026-04-25 12:57 22.30246 92.15019 35020 ft 559 kts 79°
2026-04-25 12:57 22.30808 92.19172 35026 ft 559 kts 79°